Location: Casalecchio di Reno
(44.4760°N, 11.2757°E)
Time: 13:51:18
(UTC+02:00)

AO-73 - Visible Passes

Search period start: 18 June 2024 00:00
Search period end: 28 June 2024 00:00
Orbit: 557 x 626 km, 97.7° (Epoch: 17 June)

Date Brightness Start Highest point End Pass type
(mag) Time Alt. Az. Time Alt. Az. Time Alt. Az.
18 Jun ? 04:34:14 10° N 04:38:15 82° WNW 04:42:14 10° SSW visible
19 Jun ? 03:09:54 10° ENE 03:10:37 10° E 03:11:20 10° E visible
19 Jun ? 04:42:39 10° N 04:46:37 66° WNW 04:50:34 10° SSW visible
20 Jun ? 03:17:11 10° ENE 03:19:06 13° E 03:21:00 10° ESE visible
20 Jun ? 04:51:05 10° N 04:54:58 52° WNW 04:58:51 10° SSW visible
21 Jun ? 03:25:01 10° NE 03:27:33 16° E 03:30:04 10° SE visible
22 Jun ? 03:33:00 10° NE 03:35:58 20° E 03:38:55 10° SE visible
23 Jun ? 03:41:05 10° NE 03:44:22 24° E 03:47:39 10° SSE visible
24 Jun ? 03:49:13 10° NE 03:52:45 30° E 03:56:17 10° SSE visible
25 Jun ? 03:57:23 10° NNE 04:01:07 36° E 04:04:50 10° SSE visible
26 Jun ? 04:05:35 10° NNE 04:09:27 46° E 04:13:19 10° S visible
27 Jun ? 04:13:48 10° NNE 04:17:46 57° E 04:21:44 10° S visible
